METEOSAT-10 (MSG-3)

Last updated on Mon Sep 07 2026 00:02:40 GMT+0000 (Coordinated Universal Time)

1 38552U 12035B 26249.59182167 -.00000022 00000+0 00000+0 0 9999 2 38552 4.8597 60.5606 0000899 119.5354 18.7548 1.00269122 51670
UTC large
Height (km)
Speed (km/s)
/
Latitude / Longitude
Inclination (degrees)
Orbital Period (minutes)
Azimuth
Elevation
Range (km)
Doppler Factor

Next 0 passes for location: London (51.5072 / 0.1276)

No passes found over London.
METEOSAT-10 (MSG-3)